Regional Weather Roundup
Issued by NWS

Home | Current Version | Previous Version | Text Only | Print | Product List | Glossary On
Versions: 1 2 3 4 5 6 7 8 9 10 11 12 13 14 15 16 17 18 19 20 21 22 23 24 25 26 27 28 29 30 31 32 33 34 35 36 37 38 39 40 41 42 43 44 45 46 47 48 49 50
000
ASUS43 KIND 051809
RWRIN

WEATHER ROUNDUP FOR INDIANA
NATIONAL WEATHER SERVICE INDIANAPOLIS IN
200 PM EDT SUN JUL 05 2015

NOTE: "FAIR" INDICATES FEW OR NO CLOUDS BELOW 12,000 FEET WITH NO
SIGNIFICANT WEATHER AND/OR OBSTRUCTIONS TO VISIBILITY.

* - STATION DOES NOT REPORT WEATHER SUCH AS PRECIPITATION OR FOG.

+ - STATION NOT QUALITY CONTROLLED BY THE NATIONAL WEATHER SERVICE.
    USE DATA WITH CAUTION...ESPECIALLY DEWPOINT AND RELATIVE
    HUMIDITY OBSERVATIONS.

INZ001>003-010>013-019-020-051900-
NORTHWEST INDIANA

CITY           SKY/WX    TMP DP  RH WIND       PRES   REMARKS
GARY /AIRPORT/ PTSUNNY  N/A N/A N/A S7        30.09F
KNOX *+        SUNNY     81  57  44 SE5       30.09F
LA PORTE +     MOSUNNY   81  61  50 E3        30.11S
6HR MIN TEMP:  66; 6HR MAX TEMP:  81;

MICHIGAN CITY+ SUNNY     81  57  44 CALM      30.10S
MONTICELLO +   SUNNY     79  62  56 S3        30.10S
6HR MIN TEMP:  62; 6HR MAX TEMP:  79;

RENSSELAER +   MOSUNNY   79  61  53 S6        30.10F
VALPARAISO     SUNNY     80  61  52 VRB5      30.11S
6HR MIN TEMP:  62; 6HR MAX TEMP:  81;


$$

LMZ046-743>745-051900-
SOUTHERN LAKE MICHIGAN

STATION/POSITION TIME  TEMP    WIND        PRES    WAVE
                       AIR SEA DIR/SP/G            HT
                 (UTC) (F)     (DEG/KT/KT) (MB)    (FT)
BURNS HARBOR     1800   72      40/  6/  8 1019.3S
MICHIGAN CITY    1800   70      20/  6/  6   N/A
5NW MICH CITY    1800   71 67   10/  4/  6   N/A     1

$$

INZ004-005-014>016-021>024-051900-
NORTH CENTRAL INDIANA

CITY           SKY/WX    TMP DP  RH WIND       PRES   REMARKS
ELKHART        MOSUNNY   81  57  44 S6        30.11F
GOSHEN         SUNNY     79  59  50 SW7       30.11S
6HR MIN TEMP:  62; 6HR MAX TEMP:  80;

LOGANSPORT +   MOSUNNY   79  50  36 SE3       30.11S
PERU/GRISSOM   MOSUNNY   80  61  52 SE5       30.09F
6HR MIN TEMP:  63; 6HR MAX TEMP:  80; 6HR PCP: TRACE;

ROCHESTER +    SUNNY     82  59  44 CALM      30.11S
SOUTH BEND     MOSUNNY   81  59  47 CALM      30.11S
6HR MIN TEMP:  65; 6HR MAX TEMP:  82;

WARSAW +         N/A     79  61  53 CALM      30.11F

$$

INZ006>009-017-018-025>027-051900-
NORTHEAST INDIANA

CITY           SKY/WX    TMP DP  RH WIND       PRES   REMARKS
ANGOLA *+        N/A     81  75  83 SE5       30.12S
AUBURN +       MOSUNNY   79  54  41 CALM      30.13S
FORT WAYNE     CLOUDY    81  60  48 E6        30.12F
6HR MIN TEMP:  63; 6HR MAX TEMP:  82;

HUNTINGTON +   MOSUNNY   79  59  50 SE5       30.10F
6HR MIN TEMP:  62; 6HR MAX TEMP:  80;


$$

INZ028-029-035-036-043>045-051>053-051900-
WEST CENTRAL INDIANA

CITY           SKY/WX    TMP DP  RH WIND       PRES   REMARKS
CRAWFORDSVL +  MOSUNNY   78  56  47 N3        30.10F HAZE
6HR MIN TEMP:  59; 6HR MAX TEMP:  78;

GREENCASTLE +  MOSUNNY   79  59  50 CALM      30.10S
LAFAYETTE      SUNNY     80  60  50 SW5       30.09S
6HR MIN TEMP:  62; 6HR MAX TEMP:  80;

TERRE HAUTE    MOSUNNY   81  64  56 CALM      30.08F
6HR MIN TEMP:  65; 6HR MAX TEMP:  82;


$$

INZ030>032-037>040-046>048-054>057-064-065-051900-
CENTRAL INDIANA

CITY           SKY/WX    TMP DP  RH WIND       PRES   REMARKS
CP ATTERBURY + CLOUDY    77  64  65 SE6       30.10F
FRANKFORT +    MOSUNNY   82  61  49 CALM      30.12S
6HR MIN TEMP:  65; 6HR MAX TEMP:  82;

GREENWOOD *+   PTSUNNY   79  59  50 SE7       30.10F
INDIANAPOLIS   PTSUNNY   79  60  52 E9        30.08F
6HR MIN TEMP:  67; 6HR MAX TEMP:  80;

-EAGLE CREEK   MOSUNNY   80  60  50 E3        30.08F
6HR MIN TEMP:  66; 6HR MAX TEMP:  81;

KOKOMO *+      MOSUNNY   81  61  50 CALM      30.10S
6HR MIN TEMP:  61; 6HR MAX TEMP:  81;

MARION +       MOSUNNY   78  57  48 E5        30.11F
MT COMFORT *+  PTSUNNY   79  50  36 SE5       30.11F
SHELBYVILLE    CLOUDY    78  63  59 SE5       30.09F
6HR MIN TEMP:  66; 6HR MAX TEMP:  80;

ZIONSVILLE +   MOSUNNY   81  59  46 SE5       30.10F
6HR MIN TEMP:  62; 6HR MAX TEMP:  81;


$$

INZ033-034-041-042-049-050-058-059-051900-
EAST CENTRAL INDIANA

CITY           SKY/WX    TMP DP  RH WIND       PRES   REMARKS
MUNCIE         PTSUNNY   78  60  53 SE5       30.11F
6HR MIN TEMP:  67; 6HR MAX TEMP:  80;


$$

INZ060-061-067>069-081>083-085>088-051900-
SOUTHWEST INDIANA

CITY           SKY/WX    TMP DP  RH WIND       PRES   REMARKS
EVANSVILLE     PTSUNNY   82  70  66 E9        30.07S
6HR MIN TEMP:  71; 6HR MAX TEMP:  83;

HUNTINGBURG *+ CLOUDY    81  70  69 NE6       30.08S
6HR MIN TEMP:  70; 6HR MAX TEMP:  81;

WASHINGTON +   PTSUNNY   81  63  54 SE5       30.07S
6HR MIN TEMP:  67; 6HR MAX TEMP:  82;


$$

INZ062-063-066-070>080-084-089>092-051900-
SOUTH CENTRAL AND SOUTHEAST INDIANA

CITY           SKY/WX    TMP DP  RH WIND       PRES   REMARKS
BLOOMINGTON    PTSUNNY   80  67  64 S6        30.09F
6HR MIN TEMP:  66; 6HR MAX TEMP:  81;

MADISON *+     CLOUDY    77  55  47 E3        30.11F
NORTH VERNON + CLOUDY    82  59  44 E3        30.10F
SEYMOUR +      CLOUDY    81  66  61 SE5       30.08F

$$




USA.gov is the U.S. government's official web portal to all federal, state and local government web resources and services.